This is the latest recevied weather packets stored in our database for station/object N8SDR. If no packets are shown the sender has not sent any weather packets the latest 1 day(s).
| Time | Temp. | Humidity | Pressure | Rain* | Wind** | Luminosity | Snow |
|---|---|---|---|---|---|---|---|
| 1777992946 | 18.89° C | 82% | 1005.4 hPa | 0 mm | 1.34 m/s, 187° | 453 W/m² | - |
| 1777992644 | 18.89° C | 81% | 1005.5 hPa | 0 mm | 3.13 m/s, 210° | 478 W/m² | - |
| 1777992342 | 18.89° C | 82% | 1005.5 hPa | 0 mm | 2.24 m/s, 161° | 460 W/m² | - |
| 1777992039 | 18.89° C | 82% | 1005.6 hPa | 0 mm | 1.79 m/s, 196° | 412 W/m² | - |
| 1777991737 | 18.33° C | 83% | 1005.5 hPa | 0 mm | 1.79 m/s, 218° | 488 W/m² | - |
| 1777991434 | 18.33° C | 84% | 1005.3 hPa | 0 mm | 1.34 m/s, 195° | 422 W/m² | - |
| 1777991131 | 17.78° C | 83% | 1005.5 hPa | 0 mm | 2.68 m/s, 191° | 446 W/m² | - |
| 1777990828 | 18.33° C | 84% | 1005.2 hPa | 0 mm | 1.34 m/s, 234° | 418 W/m² | - |
| 1777990526 | 17.78° C | 86% | 1005.1 hPa | 0 mm | 1.79 m/s, 203° | 413 W/m² | - |
| 1777990222 | 17.78° C | 87% | 1005.2 hPa | 0 mm | 0 m/s | 424 W/m² | - |
| 1777989919 | 17.22° C | 88% | 1005.1 hPa | 0 mm | 1.34 m/s, 186° | 390 W/m² | - |
| 1777989616 | 16.67° C | 88% | 1005.4 hPa | 0 mm | 1.34 m/s, 231° | 365 W/m² | - |
| 1777989312 | 16.67° C | 91% | 1005 hPa | 0 mm | 0.45 m/s, 243° | 324 W/m² | - |
| 1777989009 | 16.67° C | 93% | 1004.9 hPa | 0 mm | 0.45 m/s, 191° | 344 W/m² | - |
| 1777988705 | 16.11° C | 93% | 1005 hPa | 0 mm | 0.89 m/s, 172° | 340 W/m² | - |
| 1777988402 | 15.56° C | 95% | 1004.8 hPa | 0 mm | 1.34 m/s, 163° | 293 W/m² | - |
| 1777988099 | 15.56° C | 96% | 1004.8 hPa | 0 mm | 1.34 m/s, 207° | 291 W/m² | - |
| 1777987794 | 15° C | 99% | 1004.8 hPa | 0 mm | 0.45 m/s, 173° | 265 W/m² | - |
| 1777987491 | 15° C | 99% | 1004.6 hPa | 0 mm | 0.89 m/s, 212° | 180 W/m² | - |
| 1777987189 | 14.44° C | 99% | 1004.6 hPa | 0 mm | 1.34 m/s, 197° | 170 W/m² | - |
| 1777986885 | 14.44° C | 99% | 1004.4 hPa | 0 mm | 0.89 m/s, 208° | 147 W/m² | - |
| 1777986583 | 14.44° C | 99% | 1004.3 hPa | 0 mm | 0.89 m/s, 163° | 102 W/m² | - |
| 1777986281 | 14.44° C | 99% | 1004.2 hPa | 0 mm | 0.45 m/s, 188° | 79 W/m² | - |
| 1777985978 | 14.44° C | 99% | 1004.6 hPa | 0 mm | 1.34 m/s, 169° | 61 W/m² | - |
| 1777985676 | 14.44° C | 99% | 1004.8 hPa | 0 mm | 0.45 m/s, 182° | 69 W/m² | - |
* Rain latest hour (hover to see other rain measurements)
** Current wind speed in m/s (hover to see current wind gust speed)